Temp
24 22 20 20 19 19 19 20 19 20 20 20 20 20 20 19 19 19 19 19 19 19 19 18 19 19 18 19 19 19 19 19 19 19 18 18 18 18 18 19 20 20 17
24 22 20 20 19 19 20 20 20 20 20 20 20 19 19 20 19 19 19 19 18 18 18 18 18 18 17 18 18 18 19 19 19 20 20 20 19 18 18 19 20 19 18
23 21 20 20 20 19 19 20 20 20 20 20 20 19 19 19 19 19 19 18 18 18 18 18 19 19 19 19 19 18 18 18 19 20 21 23 21 19 19 19 19 18 18
23 22 21 20 20 19 20 20 20 20 20 20 20 19 19 19 18 18 18 18 18 18 18 18 20 20 20 19 19 19 19 19 19 20 23 23 22 20 19 19 19 18 18
23 22 20 19 20 19 20 21 21 21 20 20 20 19 19 19 18 18 18 18 18 17 18 19 20 20 20 20 20 19 20 20 20 22 22 22 22 20 19 19 19 19 19
23 22 20 19 19 19 20 20 21 20 20 20 19 19 19 19 19 18 18 18 18 18 18 19 20 20 20 19 19 19 20 20 21 23 23 21 21 21 20 19 19 19 19
22 21 19 19 19 19 19 20 20 20 20 20 20 19 19 19 19 19 18 18 18 19 20 20 19 19 19 19 19 20 20 20 21 23 22 22 21 21 21 20 20 20 19
22 21 19 19 19 19 19 19 19 19 19 19 19 19 19 19 19 19 18 18 19 19 19 19 19 19 19 19 20 20 20 20 22 23 23 23 21 20 20 20 20 20 20
21 21 21 20 19 19 19 19 19 19 19 19 19 19 19 19 18 18 19 19 19 20 20 19 19 19 19 19 20 20 20 21 21 23 23 23 21 21 21 20 20 20 20
18 19 19 20 20 20 18 19 19 19 19 19 19 19 19 19 19 19 19 19 18 19 19 19 20 20 20 20 21 21 21 21 21 24 24 23 22 21 21 21 20 20 20
18 18 18 19 19 19 20 19 19 19 19 19 19 19 19 20 20 20 19 19 19 19 19 19 20 20 20 20 21 21 21 22 23 24 24 23 22 21 21 20 20 20 20
19 19 19 18 18 18 20 20 20 20 20 20 20 19 19 19 19 19 19 19 19 19 20 20 20 20 20 22 23 21 21 22 22 23 24 23 22 21 21 21 21 21 21
21 19 18 18 18 19 20 20 21 20 20 19 19 19 19 19 20 20 21 21 20 20 21 21 21 21 22 21 22 22 22 22 23 23 24 22 22 22 22 22 22 21 21
22 21 19 19 18 18 19 19 20 20 20 21 20 19 19 21 20 20 21 21 20 21 20 21 22 21 20 20 20 20 21 21 22 23 23 22 21 21 22 22 22 22 22
21 20 20 19 18 18 19 20 20 20 19 17 18 17 18 20 20 20 21 21 21 21 21 21 21 21 21 21 21 21 21 21 21 22 22 22 21 21 22 22 22 21 22
20 19 19 18 18 20 18 18 17 16 15 15 16 15 15 17 17 19 20 20 20 20 20 21 21 21 21 21 21 21 21 21 22 22 22 23 22 21 22 22 22 22 22
19 18 15 16 16 17 16 15 14 14 14 14 14 14 14 15 16 17 18 18 18 18 18 19 19 20 21 21 22 21 21 22 22 22 22 22 23 22 22 21 21 21 21
18 14 13 14 14 15 14 13 12 12 13 12 13 12 14 15 15 14 15 15 15 16 17 17 18 19 19 20 20 21 21 22 22 22 22 22 22 22 22 22 21 20 20
15 12 11 12 13 14 14 13 13 13 13 13 12 12 12 12 13 14 14 14 14 15 15 15 16 15 17 16 17 19 20 21 22 22 22 22 22 21 21 21 20 20 20
14 11 11 11 11 12 12 12 12 12 11 10 10 10 11 12 12 13 13 12 14 14 14 13 14 15 16 16 16 19 20 20 21 21 22 20 20 19 18 17 17 19 18
14 11 11 11 10 11 11 12 12 12 13 12 10 10 10 10 11 11 12 12 13 12 11 12 13 15 16 14 17 18 20 21 21 18 19 19 19 17 17 17 16 16 17
14 13 11 11 11 11 10 11 12 12 12 11 10 10 10 9 9 10 10 11 10 12 11 10 11 13 14 13 13 17 21 21 20 17 18 18 15 16 15 15 15 15 15
14 13 13 13 12 12 12 11 11 11 12 12 11 10 9 9 9 9 9 9 10 10 10 10 9 10 13 13 12 12 16 18 14 18 16 15 14 13 13 13 13 13 13
13 12 12 12 11 11 12 13 13 14 13 11 10 9 9 8 8 8 8 8 8 9 8 9 9 9 10 12 12 11 10 9 13 14 15 14 13 12 12 12 11 12 13
12 11 11 11 11 10 10 11 12 11 11 10 10 9 8 8 7 7 7 7 8 8 8 8 8 8 9 9 10 10 10 11 12 11 13 12 10 10 11 9 10 11 12
12 11 11 10 10 10 10 10 10 10 10 10 10 10 10 9 8 7 7 7 7 7 7 7 7 7 7 8 8 9 9 10 10 8 8 8 8 9 8 9 10 10 10
Height
815 818 819 820 821 823 823 823 823 824 826 828 828 830 831 831 832 833 833 832 833 834 835 836 835 834 834 834 834 834 834 835 835 836 838 839 840 840 840 840 841 843 841
815 819 820 822 823 825 825 825 826 828 829 830 831 831 832 833 833 834 834 835 835 836 837 837 836 835 835 836 837 837 837 838 838 839 840 840 840 842 843 844 843 843 843
817 820 822 823 824 826 827 827 828 830 831 832 833 834 834 835 835 835 835 836 836 837 837 837 836 836 837 837 838 840 840 840 840 841 841 843 844 844 844 845 844 845 845
818 822 824 825 826 828 829 829 830 831 832 833 834 835 836 836 837 837 837 838 837 837 837 837 837 837 839 839 840 841 841 842 842 842 844 844 845 844 844 845 845 846 847
820 823 825 827 829 831 832 832 833 834 834 835 835 836 837 838 839 839 839 838 838 839 839 839 840 839 840 841 841 842 842 843 843 843 845 845 845 845 844 846 847 848 849
822 825 826 829 831 833 835 835 835 836 837 838 838 839 839 839 840 841 841 841 841 841 841 842 842 842 843 843 844 844 844 843 843 845 845 845 845 844 845 846 847 847 848
824 827 829 831 833 835 837 838 838 838 839 839 840 840 840 841 841 841 842 843 843 843 843 843 844 844 845 845 845 846 845 845 845 845 845 846 846 845 845 845 845 846 846
825 828 830 832 835 837 839 840 840 841 841 842 842 842 842 842 842 843 843 844 844 844 845 845 846 846 846 846 846 846 846 846 846 845 845 845 845 844 844 844 844 845 845
827 829 832 835 837 838 840 841 842 842 842 843 844 844 844 844 844 844 845 845 845 845 846 846 847 847 847 847 847 847 846 846 845 845 845 844 843 843 843 843 843 843 843
827 830 833 835 838 840 841 842 843 843 844 845 845 845 845 846 846 846 846 846 847 847 847 847 848 847 847 847 847 847 846 846 845 844 843 843 842 841 841 842 841 841 841
829 831 833 836 838 840 841 843 843 844 845 845 846 846 847 848 848 848 847 846 846 846 846 847 847 847 847 847 847 846 845 845 844 843 841 840 840 840 840 839 839 838 838
829 831 833 835 837 839 842 843 844 846 846 847 847 847 848 847 847 847 847 846 846 846 846 846 846 846 846 847 846 845 844 844 843 841 840 839 839 838 838 837 836 836 835
828 831 833 834 836 839 841 842 844 845 846 847 847 847 847 847 847 847 847 847 847 846 847 846 846 846 846 845 844 844 843 842 840 838 837 836 836 835 835 834 833 833 832
827 830 832 835 836 837 839 841 843 844 845 846 847 847 847 847 847 847 847 847 846 846 846 845 845 845 844 843 842 842 841 839 838 836 834 833 832 831 830 829 828 828 827
828 830 832 835 835 837 839 841 842 843 844 844 846 845 846 846 846 846 846 846 846 845 845 844 843 843 842 840 839 839 837 836 835 833 831 829 828 826 825 824 823 823 822
829 831 833 834 836 837 837 839 840 842 842 844 845 844 844 845 845 846 845 845 845 844 843 842 841 840 839 837 836 835 834 832 831 829 827 825 823 821 820 819 818 817 816
829 831 831 833 833 834 837 839 841 842 843 843 844 842 843 844 845 845 845 845 844 843 842 841 839 838 836 834 833 831 830 828 826 825 823 822 820 817 816 815 813 812 810
831 832 831 832 833 834 837 839 840 842 843 845 844 844 843 843 842 843 844 844 843 842 841 840 838 837 835 833 830 828 826 823 822 821 819 817 815 813 811 809 808 807 805
832 832 832 832 833 834 836 839 839 842 843 844 845 846 846 845 844 846 846 844 844 843 841 840 838 836 834 832 829 826 822 820 817 815 813 812 811 809 807 806 804 803 800
833 833 833 834 835 836 837 840 841 843 845 845 848 847 847 847 846 848 846 845 845 844 843 841 839 837 835 832 827 823 819 817 815 813 811 811 812 808 806 803 801 799 796
834 835 836 836 839 840 842 843 846 848 851 851 851 850 849 849 849 849 848 847 847 846 845 843 840 838 835 832 826 821 815 812 812 813 814 812 811 811 809 806 804 801 796
835 837 838 839 840 842 843 845 848 850 852 853 853 853 852 852 852 851 850 849 849 848 847 845 843 841 838 836 833 822 813 811 811 813 813 813 813 811 809 806 803 800 796
837 838 840 842 843 845 845 848 850 851 853 855 856 855 855 854 853 852 852 851 851 850 849 848 846 844 841 839 838 836 827 820 823 811 814 814 814 812 809 805 802 798 794
839 841 842 844 845 846 848 849 850 851 854 857 857 858 857 856 856 854 854 854 853 853 851 851 849 847 845 843 841 841 841 841 831 819 814 814 814 812 809 804 801 796 792
839 841 843 845 847 848 849 851 851 853 856 858 859 859 859 859 858 857 857 856 856 854 854 853 850 849 847 846 845 843 842 838 834 832 817 815 815 813 808 805 799 795 790
839 842 845 847 849 849 851 852 853 855 856 858 860 860 861 861 861 860 859 858 857 856 856 855 853 852 850 849 848 846 843 841 838 837 831 824 817 811 809 803 800 795 789
Wind_Speed
11 10 10 9 7 8 10 13 15 18 17 14 14 14 12 12 11 11 11 12 14 13 13 14 15 15 14 15 17 16 15 14 14 13 13 13 13 11 10 13 13 8 11
17 13 12 11 10 11 12 14 18 17 16 16 14 12 11 10 9 9 9 11 12 12 12 12 14 16 16 17 18 16 17 16 14 11 10 8 8 8 8 10 9 8 8
17 15 13 12 11 13 14 16 17 17 15 14 13 11 10 10 9 9 9 9 10 11 12 12 13 15 16 17 16 15 14 13 13 14 11 6 6 5 5 6 7 9 5
17 15 13 14 13 14 15 16 16 16 14 13 12 12 11 10 9 9 9 9 10 9 11 12 14 16 17 16 16 14 13 11 10 10 6 6 6 3 4 4 5 4 5
16 15 14 15 14 15 15 15 15 14 13 13 12 11 10 9 9 10 9 8 9 9 10 12 15 17 17 16 15 13 11 10 10 8 5 5 4 0 2 2 2 1 3
16 15 16 14 14 15 14 13 13 12 12 12 12 11 10 10 11 10 9 8 8 10 10 12 14 15 14 13 10 8 7 8 7 3 3 2 3 2 1 2 4 6 6
15 14 15 15 13 13 12 12 12 11 10 10 9 9 9 9 9 9 9 7 7 9 11 12 13 11 10 7 5 5 5 6 5 4 3 1 1 4 2 3 4 5 6
14 14 13 13 13 12 11 11 10 10 9 9 8 7 7 7 7 7 7 7 8 9 9 10 9 8 6 3 1 1 3 5 4 3 3 2 5 6 5 5 6 7 9
14 13 12 11 10 11 10 10 9 8 8 7 6 6 5 5 5 5 5 5 6 6 6 7 6 5 4 3 3 4 5 6 5 4 4 3 5 5 6 8 9 11 11
13 13 11 10 9 8 7 8 8 7 6 5 4 4 4 5 5 5 6 2 3 3 3 4 5 4 5 6 7 8 9 9 7 7 7 6 9 9 9 10 11 12 15
10 10 9 9 8 7 7 6 5 5 4 4 4 3 5 1 2 2 2 1 1 2 3 4 5 6 7 8 10 11 11 9 10 10 10 11 14 13 12 12 13 15 17
12 10 10 9 8 8 7 6 5 4 3 3 2 1 2 1 1 1 2 2 2 3 3 4 6 7 8 8 8 11 8 10 12 13 14 17 18 16 17 17 17 16 17
14 11 11 9 9 9 7 6 5 4 3 2 1 1 1 1 2 1 1 2 2 5 3 5 6 6 6 8 9 9 10 12 13 15 16 20 21 19 19 20 21 21 20
13 11 11 10 9 9 7 7 6 4 3 2 1 1 2 1 2 2 2 3 3 3 4 5 6 7 8 9 10 11 12 13 14 15 17 19 19 18 19 20 22 23 23
10 9 10 9 9 9 8 8 7 5 5 5 4 4 3 1 2 2 2 3 4 5 6 7 8 9 10 12 12 13 15 15 16 17 18 18 22 20 20 20 21 22 23
9 9 9 8 8 9 9 11 8 6 6 5 5 5 4 3 3 3 3 3 4 5 6 8 10 11 12 13 14 15 16 16 17 18 19 20 22 24 23 23 24 24 25
8 9 8 9 11 13 12 9 8 7 6 7 6 5 5 6 5 4 3 4 6 7 8 9 10 12 14 15 16 18 18 19 20 20 21 22 22 23 23 24 26 26 26
8 8 9 10 12 14 13 10 9 9 8 7 8 7 8 6 5 6 5 6 7 6 7 8 8 10 12 12 15 17 20 21 21 22 23 22 22 23 24 24 24 27 30
9 10 12 12 14 15 16 15 14 13 11 10 10 9 11 10 10 8 8 8 8 8 9 10 9 9 10 12 15 18 18 20 21 21 21 21 21 20 20 21 22 23 24
10 12 13 14 16 18 19 18 16 14 13 12 12 13 13 12 12 9 9 10 10 9 10 11 11 10 9 14 18 17 16 18 18 16 14 13 15 15 16 19 18 20 21
11 12 13 17 17 15 14 14 12 13 11 12 12 13 14 13 13 11 10 11 10 12 12 14 12 11 11 17 12 16 14 10 8 8 11 13 12 16 18 20 21 23 24
12 12 13 13 12 10 10 11 11 11 11 12 11 13 13 13 13 13 11 11 11 9 13 14 14 13 10 15 13 12 5 13 4 22 7 11 16 19 21 23 23 24 25
12 12 12 12 12 11 12 13 13 13 11 10 9 11 12 13 13 13 12 12 11 11 12 13 14 14 11 11 13 9 5 5 20 4 14 11 22 21 24 24 23 25 27
13 14 14 13 13 12 10 10 9 9 11 9 10 10 11 12 12 12 12 11 11 11 12 11 12 12 12 12 8 11 5 6 5 8 11 25 20 25 25 20 29 22 25
14 14 14 14 13 12 12 12 12 12 11 10 9 9 10 10 11 11 11 11 11 11 11 12 12 13 12 11 10 11 9 11 7 12 12 19 27 25 20 30 22 27 25
15 15 15 15 14 13 12 13 13 12 11 10 8 8 8 8 9 11 11 11 12 12 12 12 12 13 12 11 11 11 11 12 14 10 13 21 25 24 33 19 27 26 27
Wind_Direction
150 145 147 141 132 125 118 109 111 125 130 129 125 126 120 116 115 106 107 101 108 107 105 106 108 101 99 100 100 100 101 102 110 114 110 102 99 101 98 97 92 112 112
143 142 145 139 135 132 128 118 120 123 122 123 124 120 117 112 106 103 109 111 110 114 110 106 108 110 108 106 99 96 97 96 98 107 105 101 106 106 110 116 100 104 88
141 144 141 140 135 136 134 128 124 122 120 116 115 113 107 101 100 96 100 115 113 117 113 111 106 109 111 110 105 105 101 96 95 95 93 104 107 124 117 116 120 112 103
142 141 140 142 139 139 137 132 128 123 119 115 110 106 102 93 95 90 87 101 109 107 111 114 118 115 114 110 107 106 103 102 100 87 82 92 100 114 118 113 125 120 162
141 139 144 141 143 143 141 135 130 124 118 113 110 106 103 103 103 98 83 83 98 100 111 121 121 119 117 113 106 98 94 88 82 76 90 88 89 304 113 139 48 267 169
142 138 143 143 144 149 148 141 134 127 119 112 108 108 107 106 106 103 92 99 106 108 116 126 124 121 121 115 98 85 75 65 61 71 70 43 88 276 234 223 210 221 246
144 138 140 144 144 151 153 146 138 131 123 115 103 94 91 95 102 110 109 106 110 117 121 127 130 130 130 119 95 69 43 40 26 49 39 2 275 301 306 292 274 262 260
146 141 142 144 144 148 154 150 140 134 129 123 112 99 87 85 90 101 115 121 116 122 127 131 139 143 143 141 112 26 358 0 354 357 350 341 270 289 295 290 287 281 277
148 144 142 144 148 149 151 151 146 140 135 128 118 111 106 100 97 103 109 109 111 129 145 155 168 173 196 227 260 283 300 313 322 314 311 304 311 334 296 294 293 291 285
138 144 143 149 153 151 146 147 141 134 126 119 112 102 85 58 56 57 65 82 127 145 161 188 211 229 251 264 274 285 292 303 299 298 288 278 293 310 309 300 293 290 285
142 145 142 148 152 154 155 156 129 122 110 82 50 35 50 74 60 45 253 206 172 194 214 235 250 261 268 279 290 288 291 291 292 292 290 282 288 294 292 292 297 294 293
155 160 162 164 160 162 164 161 149 135 126 119 96 39 43 23 335 12 310 308 295 275 277 283 280 279 290 280 282 305 295 287 288 285 282 282 288 291 289 289 292 296 298
167 170 179 180 182 175 171 168 165 156 143 131 105 66 336 336 328 317 293 319 308 303 283 291 284 281 276 281 284 284 286 287 283 282 281 280 284 286 287 287 287 288 290
166 175 186 193 188 177 163 166 166 161 153 142 110 19 319 303 315 310 304 300 295 287 289 285 280 278 282 279 279 281 282 282 282 285 284 286 292 291 288 286 284 283 282
158 170 177 184 181 171 170 168 164 149 143 141 94 38 54 15 353 338 328 319 314 309 295 289 285 286 284 282 280 278 279 279 279 279 280 282 287 289 287 287 287 287 284
146 150 162 174 170 175 159 162 140 131 122 106 79 48 35 31 2 343 326 323 322 319 306 297 290 286 283 283 282 281 279 278 279 280 279 281 281 286 286 284 284 284 284
140 132 114 122 145 166 156 128 114 108 106 94 76 64 53 39 18 21 5 354 341 330 325 310 301 292 287 283 284 285 282 279 278 276 278 280 284 287 289 293 292 290 287
144 124 115 140 143 144 134 121 118 105 94 79 89 60 50 45 47 41 36 16 355 349 340 333 325 314 302 299 294 289 288 284 282 281 279 280 282 285 286 287 292 293 294
135 120 114 125 138 142 148 133 121 114 108 95 83 67 58 47 48 43 36 24 15 12 7 356 348 343 325 320 311 299 292 288 288 289 285 287 288 288 293 294 297 299 303
126 122 124 126 130 130 123 120 115 105 98 87 69 67 63 50 50 54 42 36 32 24 15 9 2 355 340 336 319 306 302 294 293 293 306 319 317 329 335 337 327 314 318
129 119 126 127 119 115 118 112 102 100 96 83 70 64 61 56 48 49 45 37 33 30 22 16 7 359 356 349 330 325 307 291 315 348 322 318 330 334 330 331 327 320 315
130 131 127 125 127 124 123 115 116 111 103 93 81 69 60 56 53 48 50 42 38 30 26 22 20 8 9 11 355 311 333 317 105 325 325 333 344 336 332 329 324 321 319
122 128 133 134 129 125 122 121 116 109 103 96 83 71 61 59 55 52 48 45 39 38 30 24 22 20 5 17 28 16 338 344 333 34 328 349 334 337 331 326 326 322 317
126 124 125 126 125 126 131 133 133 125 115 102 93 87 71 61 55 51 47 44 42 38 34 28 25 24 22 17 13 16 11 328 331 322 325 325 337 331 329 329 324 326 322
133 126 123 121 118 118 118 120 118 116 114 110 102 90 79 62 56 51 49 46 45 43 37 34 31 30 27 19 9 360 351 331 326 314 304 327 323 327 326 324 322 323 323
141 134 130 126 120 115 115 113 114 114 111 109 102 90 79 68 55 52 50 49 46 44 39 34 34 30 27 21 8 360 354 349 333 326 309 314 316 322 321 319 323 321 318